User: anonymous   Login
Location: Arrodets-la-Barthe
(43.0306°N, 0.2829°E)
Time: 05:21:36
(UTC+00:00)
Language:

IRS-1C Rocket - Orbit

View from above orbital plane
View from above orbital plane
View from above satellite
View from above satellite

Ground track
Ground track

The orbit data is extracted from the following two-line orbital elements,

1 23753U 95072C   22021.56780889 -.00000031  00000-0  61492-5 0  9993
2 23753  98.9262  59.8833 0004649  82.8231 277.3477 14.26606481356673
Epoch (UTC): 21 January 2022 13:37:38
Eccentricity: 0.0004649
inclination: 98.9262°
perigee height: 800 km
apogee height: 806 km
right ascension of ascending node: 59.8833°
argument of perigee: 82.8231°
revolutions per day: 14.26606481
mean anomaly at epoch: 277.3477°
orbit number at epoch: 35667

The dashed part of the orbit path shows where the satellite is in the earth's shadow,  

DLR